Flag for Germany Weather past 2 weeks in Solingen, North Rhine-Westphalia, Germany

Now
57 °F

Clear.


Feels Like: 55 °F
Forecast: 65 / 88 °F
Wind: 9 mph from Southeast

Location: Duesseldorf

Current Time: Aug 5, 2015 at 4:42:11 AM

Latest Report: Aug 5, 2015 at 4:20 AM


Visibility: 10 mi

Pressure: 30.09 "Hg

Humidity: 94%

Dew point: 55 °F

Location of SolingenLocation

Historic Weather in Solingen — Graph

°F

Solingen temperature yesterday

Maximum temperature yesterday: 75 °F (at 1:50 AM)
Minimum temperature yesterday: 59 °F (at 11:20 PM)
Average temperature yesterday: 68 °F

Past Weeks' High & Low Weather Summary

 TemperatureHumidityPressure
High93 °F (Aug 3, 3:50 PM)100% (Jul 26, 5:50 AM)30.15 "Hg (Jul 26, 5:50 AM)
Low45 °F (Jul 31, 4:50 AM)21% (Aug 3, 3:50 PM)29.50 "Hg (Jul 25, 6:50 AM)
Average65 °F66%29.90 "Hg
* Reported Jul 21 3:20 AM — Aug 5 3:20 AM, Solingen, Weather by CustomWeather, © 2015

Note: Actual official high and low records may vary slightly from our data, if they occured in-between our weather recording intervals... More about our weather records

Advertising

Solingen weather history for previous 24 hours

 ConditionsComfort  
Time TempWeatherWind HumidityBarometerVisibility
3:20 AM
Wed, Aug 5
55 °FFog.6 mph88%30.09 "HgN/A
2:50 AM57 °FFog.5 mph88%30.07 "HgN/A
2:20 AM57 °FClear.5 mph94%30.07 "Hg10 mi
1:50 AM59 °FClear.3 mph82%30.09 "Hg10 mi
1:20 AM61 °FClear.3 mph88%30.07 "Hg10 mi
12:20 AM59 °FClear.3 mph88%30.07 "Hg10 mi
11:50 PM
Tue, Aug 4
61 °FClear.6 mph83%30.07 "Hg10 mi
11:20 PM59 °FClear.5 mph88%30.07 "Hg10 mi
10:50 PM61 °FClear.6 mph83%30.07 "Hg10 mi
10:20 PM63 °FPassing clouds.5 mph77%30.07 "HgN/A
9:50 PM63 °FScattered clouds.7 mph77%30.04 "HgN/A
9:20 PM63 °FScattered clouds.6 mph77%30.04 "HgN/A
8:50 PM64 °FPassing clouds.6 mph78%30.04 "HgN/A
8:20 PM66 °FPassing clouds.6 mph73%30.04 "HgN/A
7:50 PM66 °FPassing clouds.6 mph68%30.01 "HgN/A
7:20 PM66 °FPassing clouds.7 mph73%30.04 "HgN/A
6:50 PM66 °FPassing clouds.9 mph73%30.01 "HgN/A
6:20 PM66 °FScattered clouds.7 mph78%30.01 "HgN/A
5:50 PM64 °FScattered clouds.7 mph78%30.01 "HgN/A
5:20 PM63 °FPartly sunny.9 mph88%30.01 "HgN/A
4:50 PM63 °FPartly sunny.8 mph94%30.01 "HgN/A
4:20 PM63 °FLight rain. Partly sunny.10 mph94%30.01 "HgN/A
3:50 PM63 °FLight rain. Partly sunny.13 mph94%29.98 "HgN/A
3:20 PM63 °FSprinkles. Partly sunny.12 mph94%29.95 "Hg4 mi
2:50 PM66 °FRain showers. Broken clouds.10 mph94%29.95 "Hg2 mi
2:20 PM66 °FSprinkles. Broken clouds.9 mph94%29.92 "Hg4 mi
1:50 PM66 °FSprinkles. Broken clouds.9 mph94%29.92 "Hg4 mi
1:20 PM66 °FRain showers. Broken clouds.7 mph88%29.92 "Hg4 mi
12:50 PM66 °FLight rain. Broken clouds.8 mph88%29.92 "HgN/A
12:20 PM66 °FLight rain. More clouds than sun.8 mph88%29.92 "HgN/A
11:50 AM66 °FRain. More clouds than sun.8 mph88%29.92 "HgN/A
11:20 AM68 °FLight rain. Partly sunny.13 mph83%29.92 "HgN/A
10:50 AM72 °FLight rain. Partly sunny.7 mph69%29.86 "HgN/A
10:20 AM72 °FLight rain. Partly sunny.13 mph69%29.86 "HgN/A
9:50 AM73 °FLight rain. Partly sunny.9 mph65%29.86 "HgN/A
9:20 AM72 °FSprinkles. Broken clouds.2 mph73%29.83 "HgN/A
8:50 AM70 °FSprinkles. Broken clouds.5 mph78%29.83 "HgN/A
8:20 AM70 °FSprinkles. Partly sunny.6 mph78%29.86 "HgN/A
7:50 AM70 °FSprinkles. Partly sunny.2 mph73%29.83 "HgN/A
7:20 AM70 °FSprinkles. Partly sunny.9 mph69%29.86 "HgN/A
6:50 AM75 °FSprinkles. Passing clouds.12 mph47%29.80 "HgN/A
6:20 AM75 °FSprinkles. Partly cloudy.13 mph47%29.80 "HgN/A
5:50 AM75 °FScattered showers. Partly cloudy.12 mph47%29.80 "HgN/A
5:20 AM75 °FClear.13 mph44%29.80 "Hg10 mi
4:50 AM75 °FClear.10 mph44%29.80 "Hg10 mi
4:20 AM75 °FClear.10 mph44%29.80 "Hg10 mi
Weather by CustomWeather, © 2015

See weather overviewHow to use our weather pages